Back to catalog

ARIANE 2 DEB

LostGTO
NORAD 40785·DEBRIS·🇫🇷 France

Launched Jan 27, 1989 from Guiana Space Centre

Loading…

TLE

StaleSource: Space-Track

Epoch: Sep 11, 2025, 12:35 UTC

1 40785U 89006CE  25254.52494609  .00000194  00000-0  12977-2 0  9996
2 40785   7.9677  30.3911 7068185  11.5607 269.5081  2.42427986165427

Track ARIANE 2 DEB in real time with AllMySat

Download on the App Store